RADUGA 22 [-]

Last updated on Nov. 11, 2019, 4:17 a.m. UTC

1 19596U 88095A   19314.86466949 -.00000152  00000-0  00000-0 0  9999
2 19596  14.3253 349.3798 0002685  69.1012  25.4711  1.00160132 97485
UTC
Height (km)
Latitude
Longitude
Inclination
Orbital Period
UTC large
Height (km)
Speed (km/s)
/
Latitude / Longitude
Inclination (degrees)
Orbital Period (minutes)
Azimuth
Elevation
Range (km)
Doppler Factor
iOS Compass Heading
iOS Angle

Next 30 passes for location: Hong Kong

Rise time Rise Azimuth (degrees) Set time Set Azimuth (degrees) Duration Max altitude (degrees)

No matching passes for this satellites